Terminal Aerodrome Forecast
Issued by NWS

Current Version | Previous Version | Graphics & Text | Print | Product List | Glossary On
Versions: 1 2 3 4 5 6 7 8 9 10 11 12 13 14 15 16 17 18
000
FTUS41 KILN 172300
TAFLCK
TAF
KLCK 172329Z 1800/1824 VRB03KT P6SM FEW050
     FM181400 03008KT P6SM SCT040
     FM182300 05003KT P6SM FEW050=

USA.gov is the U.S. government's official web portal to all federal, state and local government web resources and services.